EW4504 Weather Reports


Display with metric or nautical units.
time (UTC)temp
F
wind
direction
speed
MPH
gust
MPH
rain 1hr
in
rain 24hr
in
rain mn
in
humidity
%
barometer
mb
20260506153043 70 244 4.0 9.0 0.00 0.00 0.00 81 1015.1
20260506152532 69 202 2.0 6.0 0.00 0.00 0.00 81 1015.3
20260506152031 69 205 2.0 8.0 0.00 0.00 0.00 81 1015.4
20260506151551 69 205 2.0 10.0 0.00 0.00 0.00 82 1015.7
20260506151032 68 255 4.0 10.0 0.00 0.00 0.00 81 1015.8
20260506150532 68 214 3.0 7.0 0.00 0.00 0.00 81 1015.3
20260506150042 68 207 4.0 9.0 0.00 0.00 0.00 81 1015.2
20260506145533 68 221 4.0 11.0 0.00 0.00 0.00 81 1015.5
20260506145032 69 192 4.0 11.0 0.00 0.00 0.00 80 1015.6
20260506144559 69 220 5.0 9.0 0.00 0.00 0.00 79 1015.6
20260506144033 69 234 4.0 9.0 0.00 0.00 0.00 79 1015.5
20260506143533 69 227 3.0 10.0 0.00 0.00 0.00 78 1015.3
20260506143038 69 236 4.0 10.0 0.00 0.00 0.00 77 1015.4
20260506142531 69 208 3.0 14.0 0.00 0.00 0.00 77 1015.3
20260506142030 69 238 6.0 14.0 0.00 0.00 0.00 77 1015.3
20260506141541 69 250 3.0 13.0 0.00 0.00 0.00 77 1015.3
20260506141034 69 227 5.0 13.0 0.00 0.00 0.00 77 1015.2
20260506140531 69 215 4.0 14.0 0.00 0.00 0.00 77 1015.2
20260506140055 70 204 5.0 14.0 0.00 0.00 0.00 77 1015.1
20260506135531 70 214 5.0 13.0 0.00 0.00 0.00 77 1014.8
20260506135031 70 202 6.0 12.0 0.00 0.00 0.00 77 1014.7
20260506134544 70 207 5.0 13.0 0.00 0.00 0.00 77 1014.5
20260506134031 70 219 5.0 13.0 0.00 0.00 0.00 77 1014.2
20260506133531 69 200 2.0 14.0 0.00 0.00 0.00 78 1014.3
20260506133045 69 223 5.0 14.0 0.00 0.00 0.00 78 1014.3
20260506132530 69 202 6.0 13.0 0.00 0.00 0.00 78 1014.3
20260506132031 69 205 4.0 11.0 0.00 0.00 0.00 78 1014.2
20260506131543 69 187 6.0 12.0 0.00 0.00 0.00 78 1014.2
20260506131031 68 182 6.0 12.0 0.00 0.00 0.00 78 1014.3
20260506130530 68 195 3.0 11.0 0.00 0.00 0.00 79 1014.2
20260506130045 68 203 4.0 11.0 0.00 0.00 0.00 79 1014.1
20260506125531 68 221 4.0 11.0 0.00 0.00 0.00 79 1014.1
20260506125031 68 207 5.0 11.0 0.00 0.00 0.00 79 1014.1
20260506124541 68 213 4.0 9.0 0.00 0.00 0.00 80 1014.2
20260506124028 68 200 2.0 9.0 0.00 0.00 0.00 80 1014.1
20260506123532 67 209 4.0 9.0 0.00 0.00 0.00 80 1014.1
20260506123050 67 0 2.0 8.0 0.00 0.00 0.00 80 1014.0
20260506122532 67 165 3.0 9.0 0.00 0.00 0.00 80 1014.0
20260506122031 67 210 5.0 9.0 0.00 0.00 0.00 80 1014.0
20260506121537 67 225 3.0 7.0 0.00 0.00 0.00 80 1014.2
20260506121033 67 223 3.0 7.0 0.00 0.00 0.00 80 1014.1
20260506120533 67 217 3.0 9.0 0.00 0.00 0.00 80 1014.1
20260506120050 67 224 3.0 9.0 0.00 0.00 0.00 80 1013.8
20260506115532 67 189 3.0 9.0 0.00 0.00 0.00 80 1013.8
20260506115031 67 191 4.0 8.0 0.00 0.00 0.00 80 1013.9
20260506114542 67 196 4.0 10.0 0.00 0.00 0.00 80 1014.0
20260506114031 67 182 4.0 10.0 0.00 0.00 0.00 80 1013.8
20260506113532 67 196 3.0 9.0 0.00 0.00 0.00 80 1013.9
20260506113047 67 204 4.0 9.0 0.00 0.00 0.00 80 1013.7
20260506112530 67 222 3.0 9.0 0.00 0.00 0.00 80 1013.6
20260506112031 67 209 3.0 10.0 0.00 0.00 0.00 80 1013.4
20260506111537 67 211 4.0 11.0 0.00 0.00 0.00 80 1013.5
20260506111033 67 195 4.0 11.0 0.00 0.00 0.00 80 1013.5
20260506110533 67 217 3.0 10.0 0.00 0.00 0.00 80 1013.5
20260506110038 67 211 3.0 8.0 0.00 0.00 0.00 81 1013.4
20260506105530 67 193 3.0 7.0 0.00 0.00 0.00 80 1013.4
20260506105031 67 191 3.0 7.0 0.00 0.00 0.00 80 1013.5
20260506104549 67 211 4.0 7.0 0.00 0.00 0.00 80 1013.5
20260506104032 67 207 2.0 8.0 0.00 0.00 0.00 80 1013.3
20260506103531 67 202 2.0 8.0 0.00 0.00 0.00 79 1013.2
20260506103043 67 251 3.0 8.0 0.00 0.00 0.00 79 1013.2
20260506102529 67 216 4.0 8.0 0.00 0.00 0.00 79 1013.1
20260506102031 67 230 3.0 10.0 0.00 0.00 0.00 79 1013.0
20260506101547 67 232 4.0 10.0 0.00 0.00 0.00 78 1013.0
20260506101028 67 217 5.0 11.0 0.00 0.00 0.00 78 1013.1
20260506100531 67 195 5.0 11.0 0.00 0.00 0.00 78 1012.9
20260506100040 67 194 5.0 11.0 0.00 0.00 0.00 78 1012.7
20260506095528 67 223 5.0 10.0 0.00 0.00 0.00 77 1012.7
20260506095033 67 215 4.0 12.0 0.00 0.00 0.00 77 1012.7
20260506094536 67 182 7.0 12.0 0.00 0.00 0.00 77 1012.4
20260506094031 67 204 5.0 10.0 0.00 0.00 0.00 76 1012.2
20260506093531 67 269 4.0 15.0 0.00 0.00 0.00 76 1012.3
20260506093042 67 159 6.0 15.0 0.00 0.00 0.00 76 1012.2
20260506092532 67 209 6.0 16.0 0.00 0.00 0.00 75 1012.4
20260506092031 67 219 7.0 16.0 0.00 0.00 0.00 75 1012.3
20260506091541 68 219 3.0 10.0 0.00 0.00 0.00 74 1012.1
20260506091031 68 246 5.0 10.0 0.00 0.00 0.00 74 1012.4
20260506090533 68 215 3.0 8.0 0.00 0.00 0.00 73 1012.4
20260506090040 68 220 4.0 18.0 0.00 0.00 0.00 73 1012.3
20260506085531 68 172 7.0 18.0 0.00 0.00 0.00 73 1012.2
20260506085028 68 171 5.0 14.0 0.00 0.00 0.00 72 1012.3
20260506084542 68 198 6.0 14.0 0.00 0.00 0.00 72 1012.4
20260506084031 68 223 3.0 12.0 0.00 0.00 0.00 71 1012.5
20260506083532 68 197 5.0 12.0 0.00 0.00 0.00 71 1012.4
20260506083043 68 188 4.0 9.0 0.00 0.00 0.00 71 1012.3
20260506082531 68 218 3.0 9.0 0.00 0.00 0.00 70 1012.2
20260506082032 68 165 3.0 9.0 0.00 0.00 0.00 70 1012.3
20260506081624 68 189 5.0 13.0 0.00 0.00 0.00 70 1012.2
20260506081542 68 189 5.0 13.0 0.00 0.00 0.00 70 1012.2
20260506081035 68 222 3.0 13.0 0.00 0.00 0.00 69 1012.2
20260506080532 68 210 4.0 13.0 0.00 0.00 0.00 69 1012.1
20260506073529 69 180 5.0 8.0 0.00 0.00 0.00 68 1012.4
20260506073039 69 213 3.0 8.0 0.00 0.00 0.00 67 1012.4
20260506072529 69 173 3.0 10.0 0.00 0.00 0.00 67 1012.4
20260506072028 69 209 3.0 12.0 0.00 0.00 0.00 66 1012.2
20260506071545 69 163 5.0 12.0 0.00 0.00 0.00 66 1012.4
20260506071033 70 206 3.0 10.0 0.00 0.00 0.00 66 1012.7
20260506070531 70 216 4.0 8.0 0.00 0.00 0.00 65 1013.0
20260506062033 71 200 4.0 12.0 0.00 0.00 0.00 60 1013.4
20260506061541 71 225 6.0 15.0 0.00 0.00 0.00 60 1013.5
20260506061029 71 185 5.0 15.0 0.00 0.00 0.00 60 1013.5
20260506060532 71 194 4.0 13.0 0.00 0.00 0.00 59 1013.5
20260506051033 71 190 2.0 6.0 0.00 0.00 0.00 54 1013.4
20260506050532 71 196 1.0 5.0 0.00 0.00 0.00 54 1013.4
20260506045030 71 243 2.0 8.0 0.00 0.00 0.00 53 1012.9
20260506044557 71 145 2.0 8.0 0.00 0.00 0.00 53 1012.8
20260506044029 71 142 2.0 7.0 0.00 0.00 0.00 53 1013.0
20260506043529 71 178 1.0 6.0 0.00 0.00 0.00 53 1013.3
20260506043044 71 153 2.0 7.0 0.00 0.00 0.00 52 1013.4
20260506042531 71 203 2.0 7.0 0.00 0.00 0.00 52 1013.3
20260506042029 71 209 1.0 5.0 0.00 0.00 0.00 52 1013.4
20260506041542 71 163 1.0 5.0 0.00 0.00 0.00 52 1013.4
20260506041028 71 233 2.0 5.0 0.00 0.00 0.00 52 1013.5
20260506040530 71 169 1.0 4.0 0.00 0.00 0.00 51 1013.3
20260506040046 71 170 2.0 6.0 0.00 0.00 0.00 51 1013.3
20260506035532 71 246 2.0 6.0 0.00 0.00 0.00 50 1013.3
20260506035028 71 146 1.0 7.0 0.00 0.00 0.00 50 1013.3
20260506034539 71 163 2.0 7.0 0.00 0.00 0.00 49 1013.3
20260506034031 71 210 1.0 6.0 0.00 0.00 0.00 49 1013.3
20260506033531 71 116 2.0 6.0 0.00 0.00 0.00 48 1013.3
20260506033047 71 132 1.0 7.0 0.00 0.00 0.00 47 1013.3
20260506032531 71 0 2.0 7.0 0.00 0.00 0.00 47 1013.4
20260506032031 71 156 2.0 5.0 0.00 0.00 0.00 46 1013.3
20260506031542 71 133 0.0 6.0 0.00 0.00 0.00 46 1013.3
20260506031030 72 142 2.0 7.0 0.00 0.00 0.00 45 1013.4
20260506030528 72 173 3.0 7.0 0.00 0.00 0.00 45 1013.3
20260506030042 72 170 2.0 7.0 0.00 0.00 0.00 45 1013.4
20260506025530 72 169 2.0 7.0 0.00 0.00 0.00 45 1013.3
20260506025033 72 138 1.0 5.0 0.00 0.00 0.00 45 1013.3
20260506024544 72 180 1.0 8.0 0.00 0.00 0.00 45 1013.4
20260506024029 72 167 2.0 9.0 0.00 0.00 0.00 45 1013.5
20260506023531 72 169 2.0 9.0 0.00 0.00 0.00 45 1013.4
20260506023049 72 0 2.0 6.0 0.00 0.00 0.00 45 1013.3
20260506022528 72 0 1.0 7.0 0.00 0.00 0.00 45 1013.3
20260506022031 72 219 2.0 7.0 0.00 0.00 0.00 45 1013.2
20260506021555 73 150 2.0 5.0 0.00 0.00 0.00 46 1013.2
20260506021029 73 189 1.0 4.0 0.00 0.00 0.00 45 1013.2
20260506020528 73 211 0.0 5.0 0.00 0.00 0.00 45 1013.2
20260506020042 73 215 1.0 5.0 0.00 0.00 0.00 46 1013.2
20260506015532 73 177 1.0 4.0 0.00 0.00 0.00 45 1013.2
20260506015031 73 178 1.0 6.0 0.00 0.00 0.00 45 1013.1
20260506014543 73 177 0.0 9.0 0.00 0.00 0.00 45 1013.0
20260506014030 73 0 1.0 9.0 0.00 0.00 0.00 45 1013.0
20260506013529 73 202 2.0 9.0 0.00 0.00 0.00 45 1013.1
20260506013040 73 203 1.0 6.0 0.00 0.00 0.00 45 1013.1
20260506012531 73 202 1.0 6.0 0.00 0.00 0.00 45 1013.0
20260506012030 73 229 3.0 6.0 0.00 0.00 0.00 45 1012.9
20260506011538 73 191 1.0 6.0 0.00 0.00 0.00 45 1012.8
20260506011030 73 199 1.0 6.0 0.00 0.00 0.00 44 1012.8
20260506010529 73 204 2.0 7.0 0.00 0.00 0.00 44 1012.8
20260506010048 73 219 1.0 10.0 0.00 0.00 0.00 44 1012.7
20260506005528 74 213 3.0 10.0 0.00 0.00 0.00 44 1012.8
20260506005028 74 217 4.0 10.0 0.00 0.00 0.00 43 1012.9
20260506004547 74 196 4.0 10.0 0.00 0.00 0.00 43 1012.8
20260506004028 74 211 3.0 10.0 0.00 0.00 0.00 42 1012.9
20260506003529 74 238 4.0 11.0 0.00 0.00 0.00 42 1013.0
20260506003042 75 213 5.0 11.0 0.00 0.00 0.00 42 1012.9
20260506002528 75 198 3.0 9.0 0.00 0.00 0.00 42 1012.9
20260506002030 75 211 4.0 9.0 0.00 0.00 0.00 41 1012.8
20260506001546 75 207 4.0 8.0 0.00 0.00 0.00 41 1012.8
20260506001029 75 208 3.0 7.0 0.00 0.00 0.00 41 1012.9
20260506000531 75 205 4.0 10.0 0.00 0.00 0.00 40 1012.9
20260506000042 76 225 3.0 13.0 0.00 0.00 0.00 40 1012.9
20260505235528 76 215 5.0 13.0 0.00 0.00 0.00 40 1012.9
20260505235029 76 197 5.0 10.0 0.00 0.00 0.00 40 1012.8
20260505234604 76 212 4.0 11.0 0.00 0.00 0.00 40 1012.9
20260505234030 76 227 4.0 11.0 0.00 0.00 0.00 40 1012.9
20260505233530 76 224 4.0 10.0 0.00 0.00 0.00 40 1012.9
20260505233043 77 202 3.0 9.0 0.00 0.00 0.00 40 1012.8
20260505232528 77 192 2.0 9.0 0.00 0.00 0.00 40 1012.8
20260505232029 77 229 3.0 9.0 0.00 0.00 0.00 40 1012.8
20260505231541 77 215 3.0 9.0 0.00 0.00 0.00 39 1012.8
20260505231030 77 134 0.0 5.0 0.00 0.00 0.00 40 1012.7
20260505230530 77 0 1.0 7.0 0.00 0.00 0.00 39 1012.6
20260505230039 77 189 2.0 7.0 0.00 0.00 0.00 38 1012.4
20260505225528 78 138 3.0 8.0 0.00 0.00 0.00 38 1012.4
20260505225030 78 220 4.0 9.0 0.00 0.00 0.00 38 1012.7
20260505224539 78 217 3.0 9.0 0.00 0.00 0.00 38 1012.8
20260505224033 78 231 3.0 8.0 0.00 0.00 0.00 38 1012.8
20260505223530 77 208 3.0 8.0 0.00 0.00 0.00 39 1012.8
20260505223044 78 105 2.0 8.0 0.00 0.00 0.00 38 1012.8
20260505222530 78 215 3.0 8.0 0.00 0.00 0.00 39 1012.8
20260505222032 78 192 2.0 8.0 0.00 0.00 0.00 39 1012.7
20260505221542 78 229 2.0 13.0 0.00 0.00 0.00 39 1012.8
20260505221032 78 128 3.0 13.0 0.00 0.00 0.00 38 1012.8
20260505220530 78 179 2.0 7.0 0.00 0.00 0.00 39 1012.8
20260505220042 78 215 2.0 8.0 0.00 0.00 0.00 38 1012.8
20260505215530 78 219 5.0 10.0 0.00 0.00 0.00 38 1012.6
20260505215030 79 179 3.0 11.0 0.00 0.00 0.00 38 1012.7
20260505214559 79 219 4.0 11.0 0.00 0.00 0.00 38 1012.9
20260505214030 79 188 4.0 12.0 0.00 0.00 0.00 38 1012.9
20260505213530 79 119 3.0 12.0 0.00 0.00 0.00 37 1012.9
20260505213037 80 99 4.0 11.0 0.00 0.00 0.00 36 1012.9
20260505212531 80 190 4.0 11.0 0.00 0.00 0.00 37 1012.9
20260505212029 80 113 5.0 10.0 0.00 0.00 0.00 37 1013.1
20260505211542 80 132 3.0 10.0 0.00 0.00 0.00 37 1013.0
20260505211030 79 227 4.0 14.0 0.00 0.00 0.00 36 1013.1
20260505210527 79 221 5.0 14.0 0.00 0.00 0.00 36 1013.1
20260505210041 79 194 5.0 10.0 0.00 0.00 0.00 36 1013.1
20260505205528 80 216 2.0 12.0 0.00 0.00 0.00 37 1013.1
20260505205029 80 189 4.0 13.0 0.00 0.00 0.00 37 1013.2
20260505204548 79 253 7.0 13.0 0.00 0.00 0.00 37 1013.3
20260505204031 79 164 3.0 11.0 0.00 0.00 0.00 37 1013.3
20260505203530 79 186 6.0 12.0 0.00 0.00 0.00 36 1013.3
20260505203046 79 191 7.0 12.0 0.00 0.00 0.00 37 1013.4
20260505202530 80 155 5.0 12.0 0.00 0.00 0.00 38 1013.4
20260505202027 79 135 4.0 12.0 0.00 0.00 0.00 38 1013.4
20260505201545 79 169 4.0 11.0 0.00 0.00 0.00 39 1013.5
20260505201028 79 259 4.0 9.0 0.00 0.00 0.00 37 1013.5
20260505200531 79 175 3.0 11.0 0.00 0.00 0.00 37 1013.6
20260505200058 79 255 5.0 12.0 0.00 0.00 0.00 39 1013.8
20260505195530 79 185 3.0 12.0 0.00 0.00 0.00 38 1013.9
20260505195029 79 139 5.0 12.0 0.00 0.00 0.00 39 1014.0
20260505194547 80 149 6.0 11.0 0.00 0.00 0.00 38 1014.2
20260505194031 79 152 5.0 11.0 0.00 0.00 0.00 37 1014.2
20260505193530 79 75 3.0 13.0 0.00 0.00 0.00 38 1014.4
20260505193051 79 186 3.0 14.0 0.00 0.00 0.00 37 1014.3
20260505192533 79 159 5.0 14.0 0.00 0.00 0.00 38 1014.5
20260505192030 79 240 6.0 14.0 0.00 0.00 0.00 38 1014.3
20260505191537 80 205 6.0 14.0 0.00 0.00 0.00 37 1014.3
20260505191030 80 218 6.0 14.0 0.00 0.00 0.00 37 1014.4
20260505190528 79 150 4.0 14.0 0.00 0.00 0.00 36 1014.5
20260505190037 79 214 6.0 11.0 0.00 0.00 0.00 38 1014.5
20260505185528 79 178 4.0 15.0 0.00 0.00 0.00 38 1014.4
20260505185030 79 188 4.0 15.0 0.00 0.00 0.00 38 1014.5
20260505184542 80 98 6.0 13.0 0.00 0.00 0.00 36 1014.5
20260505184031 80 217 4.0 10.0 0.00 0.00 0.00 38 1014.7
20260505183531 80 128 4.0 18.0 0.00 0.00 0.00 38 1014.6
20260505183041 79 223 8.0 18.0 0.00 0.00 0.00 38 1014.6
20260505182527 79 146 5.0 11.0 0.00 0.00 0.00 38 1014.6
20260505182028 79 239 4.0 10.0 0.00 0.00 0.00 37 1014.8
20260505181543 80 218 4.0 13.0 0.00 0.00 0.00 38 1014.8
20260505181029 80 217 7.0 19.0 0.00 0.00 0.00 37 1015.0
20260505180529 81 201 7.0 19.0 0.00 0.00 0.00 37 1015.1
20260505180104 80 229 5.0 13.0 0.00 0.00 0.00 39 1015.0
20260505175530 80 209 6.0 11.0 0.00 0.00 0.00 39 1015.2
20260505175034 80 222 5.0 17.0 0.00 0.00 0.00 39 1015.2
20260505174558 80 198 7.0 17.0 0.00 0.00 0.00 39 1015.2
20260505174030 80 212 5.0 14.0 0.00 0.00 0.00 38 1015.2
20260505173533 79 215 2.0 12.0 0.00 0.00 0.00 39 1015.4
20260505173045 79 209 6.0 12.0 0.00 0.00 0.00 40 1015.5
20260505172531 79 114 3.0 10.0 0.00 0.00 0.00 42 1015.4
20260505172035 79 229 4.0 11.0 0.00 0.00 0.00 41 1015.5
20260505171540 79 209 6.0 11.0 0.00 0.00 0.00 41 1015.5
20260505171031 79 205 5.0 12.0 0.00 0.00 0.00 41 1015.5
20260505170531 79 249 6.0 17.0 0.00 0.00 0.00 41 1015.6
20260505170039 79 207 6.0 17.0 0.00 0.00 0.00 39 1015.5
20260505165534 79 218 9.0 17.0 0.00 0.00 0.00 39 1015.6
20260505165033 79 193 8.0 17.0 0.00 0.00 0.00 39 1015.5
20260505164545 79 196 6.0 16.0 0.00 0.00 0.00 41 1015.5
20260505164030 78 198 5.0 16.0 0.00 0.00 0.00 40 1015.4
20260505163531 78 180 6.0 14.0 0.00 0.00 0.00 41 1015.4
20260505163041 79 210 4.0 14.0 0.00 0.00 0.00 42 1015.4
20260505162530 79 217 6.0 13.0 0.00 0.00 0.00 44 1015.4
20260505162029 79 205 6.0 14.0 0.00 0.00 0.00 44 1015.4
20260505161540 78 201 6.0 14.0 0.00 0.00 0.00 45 1015.5
20260505161033 78 180 6.0 17.0 0.00 0.00 0.00 44 1015.5
20260505160530 78 219 5.0 17.0 0.00 0.00 0.00 43 1015.6